Miscellaneous Local Product
Issued by NWS Hastings, NE

Current Version | Previous Version | Text Only | Print | Product List | Glossary On
Versions: 1 2 3 4 5 6 7 8 9 10 11 12 13 14 15 16 17 18 19 20 21 22 23 24 25 26 27 28 29 30 31 32 33 34 35 36 37 38 39 40 41 42 43 44 45 46 47 48 49 50
000
AXUS43 KGID 012102
MISGRI

GID CWA HOURLY WEATHER ROUNDUP
NATIONAL WEATHER SERVICE HASTINGS NE
400 PM CDT SAT AUG 01 2015

NOTE: "FAIR" INDICATES FEW OR NO CLOUDS BELOW 12,000 FEET WITH NO
SIGNIFICANT WEATHER AND/OR OBSTRUCTIONS TO VISIBILITY.

...SOUTH CENTRAL NEBRASKA...

CITY           SKY/WX    TMP DP  RH WIND       PRES   REMARKS
GRAND ISLAND   MOSUNNY   78  59  51 N9        30.06F
HASTINGS       SUNNY     83  63  50 N14       30.05F
KEARNEY        SUNNY     84  59  42 NE15      30.06F
ORD            CLOUDY    77  58  51 S6        30.01F
YORK           MOSUNNY   77  64  65 N6        30.05F
AURORA         MOSUNNY   79  62  56 N7        30.05F
LEXINGTON      SUNNY     85  57  37 E17       30.05F
HOLDREGE       SUNNY     86  59  40 E5        30.06F
HEBRON         MOSUNNY   89  61  37 CALM      30.01F

...NEBRASKA PANHANDLE...

CITY           SKY/WX    TMP DP  RH WIND       PRES   REMARKS
CHADRON        SUNNY     94  59  31 E9        29.95F HX  93
ALLIANCE       LGT RAIN  80  65  59 SE21G29   30.01F
SCOTTSBLUFF    MOSUNNY   95  58  28 NE9       30.00F HX  94
SIDNEY         MOSUNNY   95  47  19 SW9       30.04F HX  91

...WESTERN AND NORTH CENTRAL NEBRASKA...

CITY           SKY/WX    TMP DP  RH WIND       PRES   REMARKS
VALENTINE      SUNNY     83  56  39 S28G35    29.98S
AINSWORTH      MOSUNNY   82  58  43 S23       29.97S
ONEILL         MOSUNNY   85  59  40 S9        29.95F
BROKEN BOW     PTSUNNY   81  52  36 E13G22    30.05F
IMPERIAL       MOSUNNY   92  51  24 SE16      30.02F
NORTH PLATTE   SUNNY     83  59  44 E17G25    30.05F
MCCOOK         MOSUNNY   92  61  35 E12       30.02F HX  92

...EASTERN NEBRASKA...

CITY           SKY/WX    TMP DP  RH WIND       PRES   REMARKS
NORFOLK        CLOUDY    87  54  32 SW9       29.95F
SO SIOUX CITY  CLOUDY    80  66  62 SW6       29.96R
TEKAMAH        CLOUDY    81  70  69 S5        29.97F
COLUMBUS       CLOUDY    79  61  53 SW9       29.99F
ALBION         CLOUDY    80  59  48 SW7       29.96F
OMAHA EPPLEY   CLOUDY    82  68  62 SW8       29.98F
OFFUTT AFB     CLOUDY    82  70  68 SW9       29.98F
MILLARD        CLOUDY    82  67  61 SW6       30.00F
LINCOLN        MOSUNNY   88  63  43 N14       30.02F
NEBRASKA CITY  PTSUNNY   82  67  59 SW6       29.99F
BEATRICE       MOSUNNY   88  70  56 S8        29.99F HX  93
FALLS CITY     PTSUNNY   84  72  67 SW6       29.98F

...NORTHERN KANSAS...

CITY           SKY/WX    TMP DP  RH WIND       PRES   REMARKS
GOODLAND       SUNNY     90  48  23 S17G25    30.06F
HILL CITY      MOSUNNY   93  60  33 SE8       30.01F HX  93
NORTON         CLEAR     90  57  33 SE10      30.02S
PHILLIPSBURG   MOSUNNY   93  63  36 SE6       30.01S HX  94
SMITH CENTER   SUNNY     91  64  40 SE7       30.01F HX  93
HAYS           SUNNY     93  59  31 S12G17    30.01F HX  92
RUSSELL        PTSUNNY   94  60  32 S13       29.99F HX  94
CONCORDIA      SUNNY     91  68  46 SE8       29.99F HX  95
SALINA         SUNNY     94  62  34 SE12      29.98F HX  94
TOPEKA         PTSUNNY   91  70  49 N5        29.98F HX  96



USA.gov is the U.S. government's official web portal to all federal, state and local government web resources and services.